INSAT 1D

Satellite information

Favourite Embed

Satellite Type and Status

PAYLOADIN ORBIT

Key statistics

Satellite INSAT 1D at a glance.

Uptime

12968

Days in orbit

Revolutions

≈ 1.0

Per day

Orbit

OTHER

Other

Inclination

14.6

Latest

Satellite identification and parameters

Extended collection of information and parameters for INSAT 1D.

Object identification

Identified? True

Debris? False

Object name: INSAT 1D

International designator: 1990-051A

Object number (NORAD): 20643

Object ID (CCSDS): 20643

Country: INDIA (IND)

Current information (Y/N): Y

RCS size: LARGE

Orbital parameters

Period: 1435.871 minutes

Inclination: 14.6318 deg

SMA: 42160.301 km

Apoapsis: 35855.312 km

Periapsis: 35709.019 km

RAAN: 355.3984 deg

Eccentricy: 0.00173496

Argument of periapsis: 197.0777 deg

Mean anomaly: 352.6281 deg

Mean motion: 1.00287594 rev/day

Mean motion (dot): -0.00000125 rev/day2

B* drag term: 0.0 1/REarth

Two-line elements (TLE)

Creation date: Dec. 12, 2025, 10:14 a.m.

Reference frame: TEME

Reference center: EARTH

Epoch: Dec. 12, 2025, 1:51 a.m. UTC

TLE line 0: 0 INSAT 1D

TLE line 1: 1 20643U 90051A 25346.07735934 -.00000125 00000-0 00000-0 0 9997

TLE line 2: 2 20643 14.6318 355.3984 0017350 197.0777 352.6281 1.00287594116877

Live tracking on map

Real-time ground track for satellite INSAT 1D.

In-orbit conjunctions

A list of the most updated potential collisions computed for object INSAT 1D.

Target Orbit TCA Probability of collision Miss distance Type
HGS 4 (GALAXY 4) OTHER 2024-12-26 19:36:09 TBA 2972.0 (m) PAYLOAD

Associated space launch

Geostationary communications satellite

INSAT 1D was lifted into orbit during the mission ‘Delta 4925-8 | Insat 1D’, on board a Delta 4925-8 space rocket.

The launch took place on June 12, 1990, 5:52 a.m. from Space Launch Complex 17B.

For more information about the launch, click the button.

Launch to space Delta 4925-8 | Insat 1D
Delta 4925-8 | Insat 1D

Agency: N/A

Status: Launch Successful

Launch date: June 12, 1990, 5:52 a.m. UTC

Rocket: Delta 4925-8

Launch pad: Space Launch Complex 17B

Location: Cape Canaveral SFS, FL, USA

...

Latest news about this satellite

There are no fresh news available about this satellite. Check back as we update our databases every day.


Newsletter sign-up

Weekly statistics, charts and insights to help you stay on top of the space industry.